Other Surface Observations
Issued by NWS Tucson, AZ

Home | Current Version | Previous Version | Text Only | Print | Product List | Glossary On
Versions: 1 2 3 4 5 6 7 8 9 10 11 12 13 14 15 16 17 18 19 20 21 22 23 24 25 26 27 28 29 30 31 32 33 34 35 36 37 38 39 40 41 42 43 44 45 46 47 48 49 50
000
SXUS55 KTWC 261616
OSOTWC

WEATHER ROUNDUP FOR SOUTHEAST ARIZONA
NATIONAL WEATHER SERVICE TUCSON AZ
915 AM MST SAT JUL 26 2014

AZZ504>506-514-261715-
LOCATION       SKY/WX    TMP DP  RH WIND       PRES   REMARKS
TUCSON         SUNNY     85  59  41 CALM      30.09S
DAVIS-MONTHAN  SUNNY     84  60  43 NW1       30.07S
CHILDRENS PARK N/A       78  63  61 SE7               PIMA CO DEQ
ALVERNON/22ND  N/A      N/A N/A N/A N/A               PIMA CO DEQ
CHERRY/GLENN   N/A      N/A N/A N/A N/A               PIMA CO DEQ
TANGERINE      N/A       79 N/A N/A SE5               PIMA CO DEQ
CONTL RANCH    N/A       80  66  63 SE6               PIMA CO DEQ
GRANT/1ST      N/A       80  64  59 SE3               PIMA CO DEQ
CRAYCROFT/22ND N/A      N/A N/A N/A N/A               PIMA CO DEQ
GOLFLINKS/KOLB N/A      N/A N/A N/A N/A               PIMA CO DEQ
AJO/12TH       N/A       79  65  62 S4                PIMA CO DEQ
SAGUARO EAST   N/A      N/A N/A N/A N/A               PIMA CO DEQ
FAIRGROUNDS    N/A       78 N/A N/A SW2               PIMA CO DEQ
SAGUARO        N/A       84  62  48 SE3               *SABINO CYN
SAN CARLOS     N/A       86  63  46 SW2               *SAN CARLOS
GREEN VALLEY   N/A       80  62  54 SW8               PIMA CO DEQ
HORSE CAMP CYN N/A       79  56  46 W7G10             *ARAVAIPA CYN
RINCON MTNS    N/A       69  51  52 NW4G11            *NR MANNING CAMP
$$

AZZ509>511-261715-
LOCATION       SKY/WX    TMP DP  RH WIND       PRES   REMARKS
SAFFORD        SUNNY     87  60  40 W7        30.04S
STRAY HORSE    N/A       76  46  35 N4G13             *
TRAIL CABIN    N/A       82  52  36 NE2               *N OF GRANVILLE
BLACK HILLS    N/A       87  58  38 NW13G18           *N OF FT THOMAS
DRY LAKE       N/A       78  49  36 NE3               *NATANES MTNS
NOON CREEK     N/A       85  57  38 NE3               *PINALENO MTNS
COLUMBINE      N/A       60  50  70 NE2               *PINALENO MTNS
GUTHRIE        N/A       81  49  33 NE9G15            *SW OF GUTHRIE
$$

AZZ502-503-513-261715-
LOCATION       SKY/WX    TMP DP  RH WIND       PRES   REMARKS
NOGALES        SUNNY     79  62  56 VRB3      30.17S
SELLS          N/A       84  66  54 S7G11             *
SASABE         N/A       78  67  68 SW8G12            *ALTAR VLY
HOPKINS        N/A       66  54  66 W10G17            *SANTA RITA MTNS
CARR CYN       N/A       80  59  49 N3                *W OF HEREFORD
$$

AZZ507-508-512-261715-
LOCATION       SKY/WX    TMP DP  RH WIND       PRES   REMARKS
SIERRA VISTA   SUNNY     82  56  40 W12       30.22R
DOUGLAS        SUNNY     79  61  53 S3        30.17S
EMPIRE MTNS    N/A       81  58  45 W6G10             *LAS CIENEGAS NCA
MULESHOE RANCH N/A       79  55  43 NW2               *PRESERVE
HEADQUARTERS   N/A       78  56  46 W6G12             *CHIRICAHUA MTNS
$$

.............................NOTES.............................
THIS IS AN AUTOMATED COLLECTIVE WITH MINIMAL QUALITY CONTROL.
PIMA CO DEQ SITES HAVE NONSTANDARD WIND SENSOR HEIGHTS.
PIMA CO DEQ SITES DO NOT REPORT WIND GUSTS.
* INDICATES WIND SENSORS LOCATED AT 20 FEET INSTEAD OF 33 FEET.
..............................KEY..............................
SKY/WX - SKY CONDITION/WEATHER
TMP    - TEMPERATURE IN FAHRENHEIT
DP     - DEWPOINT IN FAHRENHEIT
RH     - RELATIVE HUMIDITY IN PERCENT
WIND   - DIRECTION AND SPEED IN MILES PER HOUR (MPH)
VRB    - VARIABLE WIND DIRECTION
PRES   - MEAN SEA LEVEL PRESSURE IN INCHES OF MERCURY
         F - FALLING PRESSURE   R - RISING PRESSURE
         S - STEADY PRESSURE
VSB    - VISIBILITY IN MILES
HX     - HEAT INDEX IN FAHRENHEIT
WCI    - WIND CHILL INDEX IN FAHRENHEIT
N/A    - NOT AVAILABLE
AFB    - AIR FORCE BASE
         DAVIS-MONTHAN IS DAVIS-MONTHAN AIR FORCE BASE
CYN    - CANYON
MTNS   - MOUNTAINS
NCA    - NATIONAL CONSERVATION AREA
NR     - NEAR
VLY    - VALLEY
CONTL  - CONTINENTAL
PIMA CO DEQ - PIMA COUNTY DEPT OF ENVIRONMENTAL QUALITY



USA.gov is the U.S. government's official web portal to all federal, state and local government web resources and services.